Location: Gwatt
(46.7204°N, 7.6223°E)
Time: 21:51:17
(UTC+00:00)

Vanguard 2 - Pass Details

Date: 28 January 2021
Orbit: 552 x 2938 km, 32.9° (Epoch: 25 February)

Event Time Altitude Azimuth Distance (km) Brightness Sun altitude
Rises 17:52:41 0° 243° (WSW) 2,726 11.9 -14.7°
Reaches altitude 10° 17:56:29 10° 204° (SSW) 1,963 10.1 -15.3°
Maximum altitude 17:57:40 11° 188° (S) 1,967 9.8 -15.5°
Drops below altitude 10° 17:58:56 10° 172° (S) 2,114 9.8 -15.8°
Enters shadow 18:02:58 - 141° (SE) 3,198 10.4 -16.4°
